Location: *
(6.0000°S, 32.3997°W)
Time: 13:36:12
(UTC+00:00)

STARLINK-1178 - Pass Details

Date: 01 April 2020
Orbit: 549 x 551 km, 53.0° (Epoch: 05 June)

Event Time Altitude Azimuth Distance (km) Brightness Sun altitude
Rises 21:05:29 0° 339° (NNW) 2,707 7.5 -13.5°
Reaches altitude 10° 21:07:49 10° 346° (NNW) 1,816 6.5 -14.1°
Maximum altitude 21:11:42 40° 57° (ENE) 812 4.1 -15.0°
Enters shadow 21:13:19 27° 106° (ESE) 1,061 4.5 -15.4°
